Météo par heure à Abakumovka

Ce jour, 26 Juillet, Lundi

Heure Température Précipitation Vent Pression Humidité
00:00 +19°C° 0 mm 1 m/s 753 mmHg 58%
01:00 +19°C° 0 mm 1 m/s 753 mmHg 58%
02:00 +18°C° 0 mm 1 m/s 753 mmHg 59%
03:00 +16°C° 0 mm 1 m/s 753 mmHg 61%
04:00 +16°C° 0 mm 0 m/s 754 mmHg 62%
05:00 +17°C° 0 mm 0 m/s 754 mmHg 62%
06:00 +17°C° 0 mm 0 m/s 754 mmHg 63%
07:00 +19°C° 0 mm 0 m/s 754 mmHg 57%
08:00 +21°C° 0 mm 0 m/s 754 mmHg 52%
09:00 +22°C° 0 mm 0 m/s 754 mmHg 46%
10:00 +24°C° 0 mm 0 m/s 754 mmHg 42%
11:00 +25°C° 0 mm 0 m/s 754 mmHg 38%
12:00 +28°C° 0 mm 1 m/s 754 mmHg 34%
13:00 +28°C° 0 mm 1 m/s 754 mmHg 34%
14:00 +28°C° 0 mm 1 m/s 754 mmHg 33%
15:00 +28°C° 0 mm 1 m/s 753 mmHg 33%
16:00 +28°C° 0 mm 1 m/s 753 mmHg 35%
17:00 +28°C° 0 mm 1 m/s 753 mmHg 38%
18:00 +27°C° 0 mm 1 m/s 753 mmHg 40%
19:00 +26°C° 0 mm 1 m/s 753 mmHg 44%
20:00 +24°C° 0 mm 1 m/s 753 mmHg 48%
21:00 +21°C° 0 mm 2 m/s 753 mmHg 52%
22:00 +21°C° 0 mm 2 m/s 753 mmHg 52%
23:00 +20°C° 0 mm 2 m/s 753 mmHg 53%

Demain, 27 Juillet, Mardi

Heure Température Précipitation Vent Pression Humidité
00:00 +20°C° 0 mm 2 m/s 753 mmHg 53%
01:00 +20°C° 0 mm 2 m/s 753 mmHg 53%
02:00 +19°C° 0 mm 2 m/s 753 mmHg 54%
03:00 +19°C° 0 mm 2 m/s 753 mmHg 54%
04:00 +19°C° 0 mm 2 m/s 753 mmHg 56%
05:00 +19°C° 0 mm 2 m/s 753 mmHg 58%
06:00 +20°C° 0 mm 1 m/s 753 mmHg 60%
07:00 +22°C° 0 mm 1 m/s 753 mmHg 55%
08:00 +24°C° 0 mm 1 m/s 753 mmHg 50%
09:00 +25°C° 0 mm 1 m/s 753 mmHg 45%
10:00 +27°C° 0 mm 1 m/s 753 mmHg 42%
11:00 +28°C° 0 mm 2 m/s 752 mmHg 40%
12:00 +29°C° 0 mm 2 m/s 752 mmHg 37%
13:00 +29°C° 0 mm 2 m/s 752 mmHg 37%
14:00 +29°C° 0 mm 2 m/s 751 mmHg 38%
15:00 +29°C° 0 mm 2 m/s 751 mmHg 39%
16:00 +28°C° 0 mm 2 m/s 751 mmHg 42%
17:00 +27°C° 0 mm 2 m/s 751 mmHg 46%
18:00 +26°C° 0 mm 2 m/s 751 mmHg 49%
19:00 +25°C° 0 mm 2 m/s 751 mmHg 52%
20:00 +24°C° 0 mm 2 m/s 751 mmHg 55%
21:00 +23°C° 0 mm 1 m/s 751 mmHg 57%
22:00 +22°C° 0 mm 1 m/s 750 mmHg 59%
23:00 +22°C° 0 mm 1 m/s 750 mmHg 61%

Après-demain, 28 Juillet, Mercredi

Heure Température Précipitation Vent Pression Humidité
00:00 +19°C° 0 mm 0 m/s 750 mmHg 63%
01:00 +21°C° 0.1 mm 1 m/s 750 mmHg 65%
02:00 +20°C° 0.1 mm 1 m/s 750 mmHg 68%
03:00 +20°C° 0.1 mm 1 m/s 750 mmHg 70%
04:00 +20°C° 0 mm 1 m/s 750 mmHg 70%
05:00 +18°C° 0 mm 0 m/s 750 mmHg 70%
06:00 +19°C° 0 mm 0 m/s 750 mmHg 70%
07:00 +21°C° 0 mm 0 m/s 750 mmHg 63%
08:00 +23°C° 0 mm 0 m/s 750 mmHg 57%
09:00 +25°C° 0 mm 0 m/s 749 mmHg 50%
10:00 +28°C° 0 mm 1 m/s 749 mmHg 46%
11:00 +29°C° 0 mm 1 m/s 749 mmHg 43%
12:00 +30°C° 0 mm 1 m/s 749 mmHg 39%
13:00 +31°C° 0 mm 2 m/s 749 mmHg 37%
14:00 +31°C° 0 mm 2 m/s 748 mmHg 35%
15:00 +32°C° 0 mm 2 m/s 748 mmHg 33%
16:00 +31°C° 0 mm 2 m/s 748 mmHg 35%
17:00 +31°C° 0 mm 1 m/s 747 mmHg 36%
18:00 +31°C° 0 mm 1 m/s 747 mmHg 37%
19:00 +29°C° 0 mm 1 m/s 747 mmHg 40%
20:00 +28°C° 0 mm 2 m/s 747 mmHg 43%
21:00 +26°C° 0 mm 2 m/s 747 mmHg 46%
22:00 +25°C° 0 mm 2 m/s 747 mmHg 49%
23:00 +24°C° 0 mm 3 m/s 746 mmHg 51%

29 Juillet, Jeudi

Heure Température Précipitation Vent Pression Humidité
00:00 +22°C° 0 mm 3 m/s 746 mmHg 53%
01:00 +22°C° 0 mm 3 m/s 746 mmHg 53%
02:00 +21°C° 0 mm 3 m/s 746 mmHg 53%
03:00 +21°C° 0 mm 3 m/s 745 mmHg 53%
04:00 +21°C° 0 mm 3 m/s 745 mmHg 55%
05:00 +22°C° 0 mm 3 m/s 745 mmHg 57%
06:00 +22°C° 0 mm 3 m/s 745 mmHg 59%
07:00 +23°C° 0.1 mm 4 m/s 745 mmHg 59%
08:00 +25°C° 0.1 mm 5 m/s 745 mmHg 60%
09:00 +26°C° 0.1 mm 6 m/s 745 mmHg 61%
10:00 +28°C° 0 mm 5 m/s 745 mmHg 56%
11:00 +29°C° 0 mm 5 m/s 744 mmHg 51%
12:00 +32°C° 0 mm 5 m/s 744 mmHg 47%
13:00 +30°C° 0.1 mm 5 m/s 744 mmHg 50%
14:00 +29°C° 0.1 mm 4 m/s 744 mmHg 54%
15:00 +28°C° 0.1 mm 3 m/s 743 mmHg 57%
16:00 +29°C° 0 mm 2 m/s 743 mmHg 56%
17:00 +29°C° 0 mm 2 m/s 743 mmHg 55%
18:00 +29°C° 0 mm 2 m/s 743 mmHg 54%
19:00 +28°C° 0 mm 2 m/s 743 mmHg 56%
20:00 +27°C° 0 mm 2 m/s 743 mmHg 58%
21:00 +26°C° 0 mm 1 m/s 743 mmHg 60%
22:00 +25°C° 0 mm 1 m/s 743 mmHg 61%
23:00 +25°C° 0 mm 1 m/s 743 mmHg 62%

30 Juillet, Vendredi

Heure Température Précipitation Vent Pression Humidité
00:00 +24°C° 0 mm 1 m/s 743 mmHg 63%
01:00 +23°C° 0 mm 1 m/s 743 mmHg 65%
02:00 +23°C° 0 mm 1 m/s 743 mmHg 67%
03:00 +22°C° 0 mm 1 m/s 742 mmHg 68%
04:00 +23°C° 0 mm 1 m/s 743 mmHg 69%
05:00 +23°C° 0 mm 1 m/s 743 mmHg 69%
06:00 +23°C° 0 mm 2 m/s 743 mmHg 70%
07:00 +25°C° 0.1 mm 2 m/s 743 mmHg 65%
08:00 +27°C° 0.1 mm 3 m/s 743 mmHg 60%
09:00 +28°C° 0.1 mm 4 m/s 743 mmHg 55%
10:00 +30°C° 0 mm 4 m/s 743 mmHg 50%
11:00 +32°C° 0 mm 4 m/s 743 mmHg 46%
12:00 +34°C° 0 mm 4 m/s 742 mmHg 41%
13:00 +34°C° 0 mm 4 m/s 742 mmHg 40%
14:00 +35°C° 0 mm 5 m/s 742 mmHg 38%
15:00 +35°C° 0 mm 5 m/s 741 mmHg 37%
16:00 +34°C° 0.2 mm 5 m/s 741 mmHg 43%
17:00 +32°C° 0.2 mm 4 m/s 741 mmHg 50%
18:00 +30°C° 0.2 mm 3 m/s 741 mmHg 56%
19:00 +28°C° 0.1 mm 3 m/s 741 mmHg 62%
20:00 +26°C° 0.1 mm 2 m/s 741 mmHg 69%
21:00 +25°C° 0.1 mm 2 m/s 742 mmHg 75%
22:00 +24°C° 0.2 mm 2 m/s 742 mmHg 78%
23:00 +22°C° 0.2 mm 3 m/s 742 mmHg 82%

31 Juillet, Samedi

Heure Température Précipitation Vent Pression Humidité
00:00 +22°C° 0.2 mm 3 m/s 742 mmHg 85%
01:00 +22°C° 0 mm 3 m/s 742 mmHg 84%
02:00 +22°C° 0 mm 3 m/s 742 mmHg 83%
03:00 +21°C° 0 mm 3 m/s 742 mmHg 83%
04:00 +23°C° 0 mm 2 m/s 742 mmHg 81%
05:00 +23°C° 0 mm 2 m/s 742 mmHg 79%
06:00 +23°C° 0 mm 2 m/s 742 mmHg 78%
07:00 +24°C° 0 mm 2 m/s 742 mmHg 73%
08:00 +25°C° 0 mm 2 m/s 743 mmHg 68%
09:00 +26°C° 0 mm 2 m/s 743 mmHg 63%
10:00 +28°C° 0 mm 2 m/s 743 mmHg 57%
11:00 +29°C° 0 mm 2 m/s 743 mmHg 50%
12:00 +31°C° 0 mm 2 m/s 743 mmHg 44%
13:00 +33°C° 0 mm 3 m/s 743 mmHg 39%
14:00 +34°C° 0 mm 3 m/s 742 mmHg 35%
15:00 +35°C° 0 mm 3 m/s 742 mmHg 30%
16:00 +34°C° 0 mm 3 m/s 742 mmHg 32%
17:00 +33°C° 0 mm 3 m/s 742 mmHg 35%
18:00 +32°C° 0 mm 2 m/s 742 mmHg 37%
19:00 +30°C° 0 mm 2 m/s 742 mmHg 41%
20:00 +28°C° 0 mm 3 m/s 743 mmHg 45%
21:00 +26°C° 0 mm 3 m/s 743 mmHg 49%
22:00 +25°C° 0.1 mm 2 m/s 743 mmHg 54%
23:00 +24°C° 0.1 mm 2 m/s 743 mmHg 60%
Voir plus

Nous avons besoin de votre consentement

Meteoprog et ses fournisseurs de services peuvent stocker et accéder à des données personnelles telles que des cookies, des identifiants d'appareils ou d'autres technologies similaires sur votre appareil et traiter ces données pour personnaliser le contenu et les publicités, ainsi que pour fournir des fonctionnalités de médias sociaux et analyser le trafic.

  • Stocker et/ou accéder à des informations sur votre appareil

    Des cookies, des identifiants d'appareils ou d'autres informations peuvent être stockés ou accessibles sur votre appareil aux fins indiquées ci-dessus.

  • Annonces et contenus personnalisés, mesure des annonces et des contenus, connaissance de l'audience et développement de produits

    Les annonces et le contenu peuvent être personnalisés en fonction d'un profil. D'autres données peuvent être ajoutées pour mieux personnaliser les annonces et le contenu. Les performances des publicités et du contenu peuvent être mesurées. Il est possible d'obtenir des informations sur le public qui a vu les publicités et le contenu. Ces données peuvent être utilisées pour développer ou améliorer l'expérience de l'utilisateur, les systèmes et les logiciels.

En cliquant sur "J'accepte", vous autorisez l'utilisation de cookies, des identifiants d'appareils, des balises web ou d'autres technologies similaires. Vos paramètres peuvent être modifiés dans le navigateur de votre appareil.

Dans certains cas, des intérêts légitimes peuvent être invoqués plutôt qu'un consentement. Vous pouvez en savoir plus à ce sujet dans notre Politique de confidentialité et de cookies.